Flag for United Kingdom Weather past 2 weeks in Watford, England, United Kingdom

Now
50 °F

Passing clouds.


Feels Like: 45 °F
Forecast: N/A
Wind: 15 mph from Southwest

Location: Northolt

Current Time: Feb 28, 2015 at 7:46:38 PM

Latest Report: Feb 28, 2015 at 6:50 PM


Visibility: N/A

Pressure: 29.56 "Hg

Humidity: 76%

Dew point: 43 °F

Location of WatfordLocation

Historic Weather in Watford — Graph

°F

Watford temperature yesterday

Maximum temperature yesterday: 50 °F (at 2:50 PM)
Minimum temperature yesterday: 32 °F (at 4:50 AM)
Average temperature yesterday: 40 °F

Past Weeks' High & Low Weather Summary

 TemperatureHumidityPressure
High54 °F (Feb 25, 3:50 PM)100% (Feb 15, 11:50 PM)30.74 "Hg (Feb 15, 11:50 PM)
Low27 °F (Feb 22, 5:50 AM)40% (Feb 24, 3:50 PM)29.24 "Hg (Feb 22, 9:50 PM)
Average42 °F81%29.88 "Hg
* Reported Feb 13 6:50 PM — Feb 28 6:50 PM, Watford, Weather by CustomWeather, © 2015

Note: Actual official high and low records may vary slightly from our data, if they occured in-between our weather recording intervals... More about our weather records

Advertising

Watford weather history for previous 24 hours

 ConditionsComfort  
Time TempWeatherWind HumidityBarometerVisibility
6:50 PM
Sat, Feb 28
50 °FPassing clouds.15 mph76%29.56 "HgN/A
5:50 PM50 °FPassing clouds.15 mph76%29.59 "HgN/A
4:50 PM50 °FPartly sunny.15 mph76%29.62 "HgN/A
3:50 PM50 °FPartly sunny.15 mph82%29.65 "HgN/A
2:50 PM50 °FBroken clouds.14 mph82%29.68 "HgN/A
1:50 PM48 °FDrizzle. Mostly cloudy.15 mph94%29.71 "Hg6 mi
12:50 PM48 °FDrizzle. Partly sunny.14 mph94%29.74 "Hg6 mi
11:50 AM48 °FDrizzle. Partly sunny.15 mph87%29.77 "HgN/A
10:50 AM46 °FDrizzle. Partly sunny.15 mph87%29.80 "HgN/A
10:04 AM46 °FMostly cloudy.12 mph87%29.83 "HgN/A
9:50 AM45 °FDrizzle. Mostly cloudy.12 mph93%29.83 "Hg4 mi
8:50 AM45 °FDrizzle. Mostly cloudy.15 mph87%29.86 "HgN/A
7:50 AM45 °FLow clouds.15 mph87%29.86 "HgN/A
6:50 AM45 °FLow clouds.15 mph81%29.86 "HgN/A
5:50 AM45 °FPassing clouds.13 mph76%29.89 "HgN/A
4:50 AM45 °FOvercast.14 mph71%29.92 "HgN/A
3:50 AM43 °FOvercast.13 mph81%29.95 "HgN/A
2:50 AM43 °FPassing clouds.13 mph87%29.98 "HgN/A
1:50 AM43 °FPartly cloudy.12 mph87%30.01 "HgN/A
12:50 AM43 °FPassing clouds.9 mph81%30.01 "HgN/A
11:50 PM
Fri, Feb 27
41 °FPassing clouds.7 mph81%30.04 "HgN/A
10:50 PM41 °FClear.8 mph76%30.07 "Hg10 mi
9:50 PM41 °FClear.7 mph76%30.07 "Hg10 mi
8:50 PM41 °FClear.8 mph76%30.09 "Hg10 mi
7:50 PM43 °FClear.8 mph71%30.09 "Hg10 mi
Weather by CustomWeather, © 2015

See weather overviewHow to use our weather pages